Preview of NWS' New Version of Forecast
This preview is not operational and should not be used for support decisions.

Regional Weather Roundup (RWR)

Issued by National Weather Service (NWS)

                            
000
ASUS42 KTBW 220918
RWRFL 
FLORIDA REGIONAL WEATHER ROUNDUP
NATIONAL WEATHER SERVICE TAMPA BAY RUSKIN FL
500 AM EDT THU AUG 22 2019

NOTE: "FAIR" INDICATES FEW OR NO CLOUDS BELOW 12,000 FEET WITH NO
SIGNIFICANT WEATHER AND/OR OBSTRUCTIONS TO VISIBILITY.

FLZ001>010-012>015-112-114-115-221000-
PANHANDLE FLORIDA
  
CITY           SKY/WX    TMP DP  RH WIND       PRES   REMARKS
PENSACOLA      FAIR      79  79 100 NE5       30.01R                  
PENSACOLA NAS  MOCLDY    78  77  96 NW5       30.00R                  
MILTON NAS     FAIR      74  74 100 CALM      30.02R                  
CRESTVIEW      FAIR      73  71  93 CALM      30.04R                  
DUKE FIELD     FAIR      73  73 100 CALM      30.02S                  
VALPARAISO     MOCLDY    77  75  94 NE5       30.01S                  
MARY ESTHER    PTCLDY    82  74  78 CALM      30.00R                  
TRI COUNTY     FOG       72  70  93 CALM      30.04S VSB 1/2          
PANAMA CITY    FAIR      74  72  93 CALM      30.01F                  
TYNDALL AFB    FAIR      75  73  95 E3        30.01S                  
APALACHICOLA   FAIR      76  74  93 CALM      30.02S                  

STATION/POSITION SKY/WX   TEMP    WIND        PRES    WAVE   SWELL
                          AIR SEA DIR/SP/G            HT/PER HT/PER
                          (F)     (DEG/KT/KT) (MB)    (FT/S) (FT/S)
30.1N   87.6W              83 85  200/  6/  8 1016.0R   2/ 6   2/ 6
29.2N   88.2W              84 85  180/  8/ 10 1015.5F   2/ 5   2/ 5
28.8N   86.0W                 84  160/  8/ 10 1015.7F   2/ 5   2/ 5
PANAMA CITY BEAC           77 87   60/  7/  9 1016.8
TOWER C                    82     150/  8/  9 1016.6F
28.5N   84.5W              83     140/  8/ 10 1016.8F   1/ 4   2/ 4

$$
FLZ011-016>038-118-127-128-134-139-239-221000-
NORTH FLORIDA
  
CITY           SKY/WX    TMP DP  RH WIND       PRES   REMARKS
MARIANNA       FAIR      73  73 100 CALM      30.03S                  
TALLAHASSEE    FAIR      76  75  97 CALM      30.03S                  
PERRY          FAIR      76  75  97 SE5       30.03F                  
LIVE OAK       PTCLDY    73  73 100 CALM      30.04S                  
CROSS CITY     FAIR      76  74  96 CALM      30.04S                  
LAKE CITY      FAIR      73  72  94 SE3       30.05F                  
GAINESVILLE    FAIR      73  72  96 CALM      30.07S                  
WILLISTON      FAIR      73  73  99 CALM      30.04F                  
MAYPORT NAS    FAIR      78  76  93 CALM      30.04F                  
JACKSONVILLE   FAIR      75  74  96 CALM      30.03F                  
JAX NAS        FAIR      81  75  82 S3        30.05S                  
JAX CECIL      NOT AVBL                                               
FERNANDINA BEA FAIR      77  76  97 MISG      30.04F                  
ST AUGUSTINE   FAIR      77  75  93 CALM      30.05F                  
PALM COAST     FAIR      74  73  96 CALM      30.05S                  

STATION/POSITION SKY/WX   TEMP    WIND        PRES    WAVE   SWELL
                          AIR SEA DIR/SP/G            HT/PER HT/PER
                          (F)     (DEG/KT/KT) (MB)    (FT/S) (FT/S)
SHELL POINT      NOT AVBL
KEATON BEACH               76      80/  7/  8 1016.8F
CEDAR KEY                  82     140/ 11/ 13 1017.1F
FERNANDINA                 83 84              1018.2S
30.7N   81.3W                 83                N/A     2/11
MAYPORT                    80 83  250/  2/  3 1017.9F
31.4N   80.9W              82 82  200/  6/  8 1017.4S   2/11   2/11
ST AUGUSTINE               79 82  200/  3/  4 1017.4F

$$
FLZ040-043>046-052-053-057-058-063-144-221000-
INTERIOR CENTRAL FLORIDA
  
CITY           SKY/WX    TMP DP  RH WIND       PRES   REMARKS
OCALA          FAIR      75  75 100 CALM      30.05F                  
LEESBURG       FAIR      79  75  87 SE3       30.05S                  
SANFORD        FAIR      78  75  90 CALM      30.04S                  
ORLANDO EXEC   FAIR      78  74  87 E3        30.04S                  
ORLANDO INTL   FAIR      77  75  93 CALM      30.04S                  
WINTER HAVEN   FAIR      80  75  84 CALM      30.05S                  
SEBRING        FAIR      76  75  98 NW3       30.04S                  
OKEECHOBEE     FAIR      73  72  94 CALM      30.03S                  

$$
FLZ041-047-054-059-064-141-147-221000-
EAST CENTRAL FLORIDA
  
CITY           SKY/WX    TMP DP  RH WIND       PRES   REMARKS
DAYTONA BEACH  FAIR      77  76  96 CALM      30.04S                  
DELAND         FAIR      73  73 100 CALM      30.04S                  
JFK SPACE CTR  FAIR      76  57  51 CALM      30.02F                  
CAPE CANAVERAL MOCLDY    75  75 100 CALM      30.02S                  
PATRICK AFB    FAIR      82  80  96 SE8       30.02S                  
MELBOURNE      FAIR      82  74  76 CALM      30.02S                  
VERO BEACH     MOCLDY    77  74  90 CALM      30.03S                  
FT PIERCE      FAIR      76  72  87 CALM      30.02S                  
STUART         FAIR      79  72  78 CALM      30.02F                  

STATION/POSITION SKY/WX   TEMP    WIND        PRES    WAVE   SWELL
                          AIR SEA DIR/SP/G            HT/PER HT/PER
                          (F)     (DEG/KT/KT) (MB)    (FT/S) (FT/S)
28.5N   80.2W              83 83  130/  8/  8 1016.8S   2/ 3   2/10
28.9N   78.5W              84 86  130/ 10/ 12 1017.5R   3/10   2/10
TRIDENT PIER               81 83  120/  4/  6 1018.4R
28.4N   80.5W                 82                N/A     2/ 4
27.5N   80.2W                 83                N/A     2/ 4

$$
FLZ050-056-061-142-242-148-248-149-249-151-251-155-255-
160-260-221000-
WEST CENTRAL FLORIDA
  
CITY           SKY/WX    TMP DP  RH WIND       PRES   REMARKS
CRYSTAL RIVER  FAIR      75  73  94 CALM      30.04F                  
INVERNESS      FAIR      73  73 100 CALM      30.05S                  
BROOKSVILLE    FAIR      75  74  96 E3        30.05S                  
CLEARWATER AIR FAIR      79  73  83 SE3       30.02F                  
ST PETE CLEARW FAIR      79  74  84 SE6       30.02F                  
TAMPA INTL     MOCLDY    80  75  84 E5        30.03F                  
PLANT CITY     FAIR      77  77 100 CALM      30.06S                  
MACDILL AFB    FAIR      78  74  87 SE3       30.02F                  
PETER O KNIGHT FAIR     N/A N/A N/A E3        30.03F                  
ST PETERSBURG  FAIR      81  74  79 SE6       30.01S                  
SARASOTA       FAIR      77  75  93 E6        30.00F                  
VENICE         FAIR      77  77 100 E7        30.02F                  

STATION/POSITION SKY/WX   TEMP    WIND        PRES    WAVE   SWELL
                          AIR SEA DIR/SP/G            HT/PER HT/PER
                          (F)     (DEG/KT/KT) (MB)    (FT/S) (FT/S)
27.3N   84.2W                 85                N/A     2/ 7
CLEARWATER BEACH           81 87  110/  5/  8 1016.9
MIDDLE TAMPA BAY           79     110/  8/  8 1016.9F
VENICE                     77 86   60/  6/  7 1016.6F

$$
FLZ066-069-070-075>078-162-262-165-265-221000-
SOUTHWEST FLORIDA AND KEYS
  
CITY           SKY/WX    TMP DP  RH WIND       PRES   REMARKS
PUNTA GORDA    FAIR      76  76 100 NE3       30.04S                  
FT MYERS       FAIR      77  74  90 CALM      30.01F                  
SOUTHWEST INTL FAIR      78  75  90 CALM      30.02S                  
NAPLES         FAIR      79  76  90 NE3       30.01S                  
MARCO ISLAND   FAIR     N/A N/A N/A NE3         N/A                   
IMMOKALEE      FAIR      75  73  94 CALM      30.00S FOG              
MARATHON       FAIR      81  72  74 CALM      29.99F                  
KEY WEST NAS   MOCLDY    83  75  77 W3        30.00F                  
KEY WEST INTL  FAIR      80  73  79 W3        30.00F                  

STATION/POSITION SKY/WX   TEMP    WIND        PRES    WAVE   SWELL
                          AIR SEA DIR/SP/G            HT/PER HT/PER
                          (F)     (DEG/KT/KT) (MB)    (FT/S) (FT/S)
NAPLES                     78 87              1016.3F
26.0N   85.6W              83 85  190/  6/  8 1016.3S   2/ 7   2/ 7
DRY TORTUGAS               84      90/  2/  2 1016.0F
SAND KEY                   79     210/  5/  6 1014.8F
SOMBRERO KEY               82      50/  9/ 12 1015.7F
LONG KEY                   83                 1014.7F

$$
FLZ067-068-071>074-168-172>174-221000-
SOUTHEAST FLORIDA 
  
CITY           SKY/WX    TMP DP  RH WIND       PRES   REMARKS
W PALM BEACH   FAIR      82  71  69 E8        30.01S                  
FT LAUDER-EXEC FAIR      81  72  74 E7        30.00S                  
FT LAUDERDALE  FAIR      82  72  71 E10       29.99F                  
POMPANO BEACH  FAIR      83  72  69 E12       30.00S                  
PEMBROKE PINES FAIR      81  72  74 CALM      30.02S                  
OPA LOCKA      FAIR      81  73  76 CALM      30.01S                  
MIAMI          FAIR      82  72  71 CALM      30.00S                  
WEST KENDALL   FAIR      78  75  90 NW5       30.00S                  
HOMESTEAD      LGT RAIN  79  75  89 CALM      29.99S FOG              

STATION/POSITION SKY/WX   TEMP    WIND        PRES    WAVE   SWELL
                          AIR SEA DIR/SP/G            HT/PER HT/PER
                          (F)     (DEG/KT/KT) (MB)    (FT/S) (FT/S)
VIRGINIA KEY               83 88   30/  7/ 10 1015.4
LAKE WORTH                 83 86   90/  9/ 12 1017.3S
FOWEY ROCKS                82 86   80/  9/  9 1015.9F
SETTLEMENT POINT           82     100/ 13/ 16 1016.3F

$$